Showing default

SUPERVIEW NEO-2 05, 68377

Orbit data source: Space-Track

SUPERVIEW NEO-2 05, 68377 is a payload satellite owned by Siwei (CN) in SSO that was launched on Wed, 25 Mar 2026 UTC via a CHANG ZHENG 2D launch vehicle from the Taiyaun Space Center, China (TSC). Payload-class satellites include a variety of spacecraft equipped with specific instruments for various scientific and technological missions. These include communications satellites like Starlink; space stations such as the ISS; scientific satellites like the Hubble; Earth observation satellites from companies like Planet Labs, Umbra, and HawkEye 360; GPS; miniature CubeSats for education and research; and military/defense satellites.

Loading next visibility...
Identifier
68377, 2026-062A
Orbit
SSO
Country
Flag of CNCN / PRC
Related business
Manufacturer
DFH
Mission
Operational spacecraft
Bus & Motor
SIWEI, Unknown motor
Mass
600 kg wet, ~500 kg dry
Launch date (UTC)
2026-03-25 (3 months ago)
Launch vehicle
CHANG ZHENG 2D
Launch site
Taiyaun Space Center, China (TSC)
Object type
Payload
Rocket body
Debris
Shape & HBR
Unknown shape, 14.5 m
Radar Cross Section
Large (>1 m²)

Expand to show TLE details & history
Last TLE update: 2 days ago

TLE from 2 days ago
0 SUPERVIEW NEO-2 05
1 68377U 26062A   26170.32319169  .00001578  00000-0  77038-4 0  9997
2 68377  97.4352 177.5978 0001543  83.9613 276.1798 15.19722358 12972
Epoch: 2026-06-19T07:45Z
TLE epoch observation values (Epoch: 2026-06-19T07:45:23.762Z)
Latitude
-0.00003°
Longitude
153.69498°
Altitude
509.654 km
Speed
7.609 km/s
True Right ascension
11h 50m 23s
True Declination
0° 00' 00"
Sunlit
Object was in daylight at epoch
Visualization orbit readout
Latitude
Unknown
Longitude
Unknown
Altitude
Unknown
Speed
Unknown
Apparent Right ascension
Unknown
Apparent Declination
Unknown
Sunlit
N/A
Visualization observer readout
Local Sidereal Time
07:22:02
Azimuth
Unknown
Elevation
Unknown
Doppler factor
Unknown
Orbital elements
Apogee altitude
504.708 km
Perigee altitude
502.585 km
Semi-major axis
6,881.783 km
Eccentricity
0.00015
Inclination
97.4352°
RAAN
177.5978°
Arg. of periapsis
83.9613°
True anomaly
276.16222°
Mean anomaly
276.1798°
Eccentric anomaly
276.17101°
Mean motion
3.80182 °/min
Orbital period
94.69 mins
BSTAR
0.000077038
Loading maneuver chart data...
Computing Atmospheric mass density...
Loading historical data...
Loading historical data...
Loading historical data...
Loading historical data...
Loading historical data...
Loading historical data...
Loading historical data...
Other satellites on launch #62 in the year 2026 (2026-03-25 UTC)

Documentation

Showing up to 5 results
|